This demonstration page uses our WeatherBlox Daily Observations layout. Learn more.

Left ArrowRight Arrow

Hourly Observations for January 21, 2022

Temp ( °F °C ) Dew Point ( °F °C ) Humidity (%) Winds ( mph kmh ) Pressure ( in mb ) Visibility ( mi km ) Precip ( " mm )
12:15 am 00:15 Clear 25 -4 14 -10 63 63 N 9 15 30.46 1031 10 16 0.00 0.00
12:35 am 00:35 Clear 23 -5 14 -10 68 68 N 9 15 30.46 1032 10 16 0.00 0.00
12:55 am 00:55 Clear 23 -5 14 -10 68 68 N 9 15 30.46 1032 10 16 0.00 0.00
1:15 am 01:15 Clear 23 -5 12 -11 63 63 N 10 17 30.46 1032 10 16 0.00 0.00
1:35 am 01:35 Clear 23 -5 12 -11 63 63 N 7 11 30.46 1032 10 16 0.00 0.00
1:55 am 01:55 Clear 23 -5 12 -11 63 63 N 9 15 30.47 1032 10 16 0.00 0.00
2:15 am 02:15 Clear 23 -5 12 -11 63 63 N 8 13 30.47 1032 10 16 0.00 0.00
2:35 am 02:35 Clear 21 -6 12 -11 68 68 N 12 19 30.47 1032 10 16 0.00 0.00
2:55 am 02:55 Clear 21 -6 12 -11 68 68 N 10 17 30.48 1032 10 16 0.00 0.00
3:15 am 03:15 Clear 21 -6 12 -11 68 68 N 7 11 30.48 1032 10 16 0.00 0.00
3:35 am 03:35 Clear 21 -6 12 -11 68 68 NNE 7 11 30.49 1033 10 16 0.00 0.00
3:55 am 03:55 Clear 21 -6 12 -11 68 68 N 10 17 30.49 1033 10 16 0.00 0.00
4:15 am 04:15 Clear 21 -6 12 -11 68 68 N 9 15 30.49 1033 10 16 0.00 0.00
4:35 am 04:35 Clear 19 -7 12 -11 73 73 NNE 8 13 30.50 1033 10 16 0.00 0.00
4:55 am 04:55 Clear 19 -7 10 -12 68 68 N 12 19 30.51 1033 10 16 0.00 0.00
5:15 am 05:15 Clear 19 -7 10 -12 68 68 NNE 10 17 30.51 1033 10 16 0.00 0.00
5:35 am 05:35 Clear 19 -7 10 -12 68 68 NNE 12 19 30.51 1033 10 16 0.00 0.00
5:55 am 05:55 Clear 19 -7 10 -12 68 68 N 8 13 30.52 1034 10 16 0.00 0.00
6:15 am 06:15 Clear 19 -7 10 -12 68 68 NNE 9 15 30.54 1034 10 16 0.00 0.00
6:35 am 06:35 Clear 19 -7 10 -12 68 68 NNE 8 13 30.55 1035 10 16 0.00 0.00
6:55 am 06:55 Clear 18 -8 10 -12 73 73 NNE 7 11 30.57 1035 10 16 0.00 0.00
7:15 am 07:15 Clear 18 -8 10 -12 73 73 NNE 8 13 30.57 1035 10 16 0.00 0.00
7:35 am 07:35 Sunny 18 -8 10 -12 73 73 NNE 12 19 30.58 1035 10 16 0.00 0.00
7:55 am 07:55 Sunny 18 -8 10 -12 73 73 NNE 10 17 30.59 1036 10 16 0.00 0.00
8:15 am 08:15 Sunny 18 -8 9 -13 68 68 NNE 10 17 30.59 1036 10 16 0.00 0.00
8:35 am 08:35 Sunny 18 -8 9 -13 68 68 NNE 10 17 30.59 1036 10 16 0.00 0.00
8:55 am 08:55 Sunny 18 -8 7 -14 62 62 NNE 12 19 30.60 1036 10 16 0.00 0.00
9:15 am 09:15 Sunny 18 -8 7 -14 62 62 NNE 12 19 30.61 1036 10 16 0.00 0.00
9:35 am 09:35 Sunny 18 -8 9 -13 68 68 NE 10 17 30.62 1037 10 16 0.00 0.00
9:55 am 09:55 Sunny 19 -7 9 -13 63 63 NNE 8 13 30.61 1037 10 16 0.00 0.00
10:15 am 10:15 Sunny 19 -7 9 -13 63 63 NNE 8 13 30.61 1037 10 16 0.00 0.00
10:35 am 10:35 Sunny 21 -6 9 -13 58 58 NE 8 13 30.62 1037 10 16 0.00 0.00
10:55 am 10:55 Sunny 21 -6 10 -12 63 63 NNE 9 15 30.61 1037 10 16 0.00 0.00
11:15 am 11:15 Sunny 21 -6 10 -12 63 63 NNE 12 19 30.61 1037 10 16 0.00 0.00
11:35 am 11:35 Sunny 21 -6 10 -12 63 63 NNE 10 17 30.60 1036 10 16 0.00 0.00
11:55 am 11:55 Sunny 21 -6 10 -12 63 63 NNE 9 15 30.59 1036 10 16 0.00 0.00
12:15 pm 12:15 Sunny 21 -6 10 -12 63 63 NNW 8 13 30.58 1036 10 16 0.00 0.00
12:35 pm 12:35 Sunny 21 -6 10 -12 63 63 N 12 19 30.57 1035 10 16 0.00 0.00
12:55 pm 12:55 Sunny 21 -6 10 -12 63 63 N 8 13 30.57 1035 10 16 0.00 0.00
1:15 pm 13:15 Sunny 23 -5 10 -12 58 58 N 7 11 30.56 1035 10 16 0.00 0.00
1:35 pm 13:35 Sunny 21 -6 10 -12 63 63 N 10 17 30.54 1034 10 16 0.00 0.00
1:55 pm 13:55 Sunny 23 -5 10 -12 58 58 N 7 11 30.54 1034 10 16 0.00 0.00
2:15 pm 14:15 Sunny 23 -5 10 -12 58 58 N 7 11 30.54 1034 10 16 0.00 0.00
2:35 pm 14:35 Sunny 23 -5 10 -12 58 58 N 10 17 30.53 1034 10 16 0.00 0.00
2:55 pm 14:55 Sunny 23 -5 10 -12 58 58 N 8 13 30.54 1034 10 16 0.00 0.00
3:15 pm 15:15 Sunny 23 -5 10 -12 58 58 N 8 13 30.54 1034 10 16 0.00 0.00
3:35 pm 15:35 Sunny 23 -5 10 -12 58 58 N 9 15 30.53 1034 10 16 0.00 0.00
3:55 pm 15:55 Sunny 23 -5 10 -12 58 58 NE 8 13 30.54 1034 10 16 0.00 0.00
4:15 pm 16:15 Sunny 23 -5 12 -11 63 63 NNE 5 7 30.54 1034 10 16 0.00 0.00
4:35 pm 16:35 Sunny 23 -5 12 -11 63 63 NE 6 9 30.55 1035 10 16 0.00 0.00
4:55 pm 16:55 Sunny 23 -5 12 -11 63 63 NE 6 9 30.55 1035 10 16 0.00 0.00
5:15 pm 17:15 Sunny 23 -5 10 -12 58 58 NNE 6 9 30.54 1034 10 16 0.00 0.00
5:35 pm 17:35 Clear 23 -5 12 -11 63 63 NE 6 9 30.55 1035 10 16 0.00 0.00
5:55 pm 17:55 Clear 23 -5 12 -11 63 63 NNE 5 7 30.56 1035 10 16 0.00 0.00
6:15 pm 18:15 Clear 23 -5 12 -11 63 63 NNE 8 13 30.56 1035 10 16 0.00 0.00
6:35 pm 18:35 Clear 23 -5 12 -11 63 63 NNE 6 9 30.56 1035 10 16 0.00 0.00
6:55 pm 18:55 Clear 23 -5 12 -11 63 63 NNE 7 11 30.56 1035 10 16 0.00 0.00
7:15 pm 19:15 Clear 23 -5 12 -11 63 63 NNE 7 11 30.56 1035 10 16 0.00 0.00
7:35 pm 19:35 Clear 23 -5 12 -11 63 63 NNE 6 9 30.56 1035 10 16 0.00 0.00
7:55 pm 19:55 Clear 23 -5 12 -11 63 63 NNE 6 9 30.56 1035 10 16 0.00 0.00
8:15 pm 20:15 Clear 23 -5 12 -11 63 63 NNE 8 13 30.55 1035 10 16 0.00 0.00
8:35 pm 20:35 Clear 21 -6 12 -11 68 68 NNE 8 13 30.55 1035 10 16 0.00 0.00
8:55 pm 20:55 Clear 21 -6 12 -11 68 68 NNE 7 11 30.55 1035 10 16 0.00 0.00
9:15 pm 21:15 Clear 21 -6 10 -12 63 63 NNE 6 9 30.55 1035 10 16 0.00 0.00
9:35 pm 21:35 Clear 21 -6 10 -12 63 63 NNE 3 6 30.55 1035 10 16 0.00 0.00
9:55 pm 21:55 Clear 21 -6 10 -12 63 63 NNE 7 11 30.54 1034 10 16 0.00 0.00
10:15 pm 22:15 Clear 21 -6 10 -12 63 63 N 6 9 30.55 1035 10 16 0.00 0.00
10:35 pm 22:35 Clear 21 -6 10 -12 63 63 N 5 7 30.55 1035 10 16 0.00 0.00
10:55 pm 22:55 Clear 19 -7 10 -12 68 68 N 7 11 30.54 1034 10 16 0.00 0.00
11:15 pm 23:15 Clear 19 -7 10 -12 68 68 N 6 9 30.54 1034 10 16 0.00 0.00
11:35 pm 23:35 Clear 19 -7 10 -12 68 68 N 5 7 30.53 1034 10 16 0.00 0.00
11:55 pm 23:55 Clear 19 -7 9 -13 63 63 N 5 7 30.52 1034 10 16 0.00 0.00

Powered by AerisWeather